User: anonymous   Login
Location: Mouss�
(47.9236°N, 1.2701°W)
Time: 23:48:34
(UTC+00:00)
Language:

Cosmos 1727 Rocket - Orbit

View from above orbital plane
View from above orbital plane
View from above satellite
View from above satellite

Ground track
Ground track

The orbit data is extracted from the following two-line orbital elements,

1 16511U 86008B   21138.40785041  .00000040  00000-0  25663-4 0  9990
2 16511  82.9460 238.4874 0022961 242.6172 186.5780 13.75796197772810
Epoch (UTC): 18 May 2021 09:47:18
Eccentricity: 0.0022961
inclination: 82.9460°
perigee height: 962 km
apogee height: 996 km
right ascension of ascending node: 238.4874°
argument of perigee: 242.6172°
revolutions per day: 13.75796197
mean anomaly at epoch: 186.5780°
orbit number at epoch: 77281

The dashed part of the orbit path shows where the satellite is in the earth's shadow,  

DLR